STARLINK-3051, 49157

Orbit data source: Space-Track

STARLINK-3051, 49157 is a payload satellite owned by SpaceX/Seattle (US) in LEO that was launched on Tue, 14 Sep 2021 UTC via an FALCON 9 launch vehicle from the Air Force Western Test Range (AFWTR). Payload-class satellites include a variety of spacecraft equipped with specific instruments for various scientific and technological missions. These include communications satellites like Starlink; space stations such as the ISS; scientific satellites like the Hubble; Earth observation satellites from companies like Planet Labs, Umbra, and HawkEye 360; GPS; miniature CubeSats for education and research; and military/defense satellites.

Loading next visibility...
Identifier
49157, 2021-082AD
Orbit
LEO
Country
Flag of USUS
Related business
Manufacturer
SpaceX/Seattle
Mission
Operational Commercial Communications
Bus & Motor
STARLINK, Unknown motor
Mass
297 kg wet, ~275 kg dry
Launch date (UTC)
2021-09-14 (5 years ago)
Launch vehicle
FALCON 9
Launch site
Air Force Western Test Range (AFWTR)
Object type
Payload
Rocket body
Debris
Shape & HBR
Box + 1 Pan, 10.1 m
Radar Cross Section
13.562 m², Large (>1 m²)

Expand to show TLE details & history
Last TLE update: 2 days ago

TLE from 2 days ago
0 STARLINK-3051
1 49157U 21082AD  26171.28792706  .00006315  00000-0  44177-3 0  9998
2 49157  69.9988  10.3139 0001949 151.4631 208.6639 15.05749237263073
Epoch: 2026-06-20T06:54Z
TLE epoch observation values (Epoch: 2026-06-20T06:54:36.897Z)
Latitude
-0.00004°
Longitude
-1.84456°
Altitude
552.823 km
Speed
7.585 km/s
True Right ascension
00h 41m 15s
True Declination
0° 00' 00"
Sunlit
Object was in daylight at epoch
Visualization orbit readout
Latitude
Unknown
Longitude
Unknown
Altitude
Unknown
Speed
Unknown
Apparent Right ascension
Unknown
Apparent Declination
Unknown
Sunlit
N/A
Visualization observer readout
Local Sidereal Time
21:38:15
Azimuth
Unknown
Elevation
Unknown
Doppler factor
Unknown
Orbital elements
Apogee altitude
548.498 km
Perigee altitude
545.799 km
Semi-major axis
6,925.285 km
Eccentricity
0.00019
Inclination
69.9988°
RAAN
10.3139°
Arg. of periapsis
151.4631°
True anomaly
208.65319°
Mean anomaly
208.6639°
Eccentric anomaly
208.65854°
Mean motion
3.76606 °/min
Orbital period
95.59 mins
BSTAR
0.00044177
Loading maneuver chart data...
Computing Atmospheric mass density...

Documentation

Showing up to 5 results
|